Time,TemperatureF,DewpointF,PressureIn,WindDirection,WindDirectionDegrees,WindSpeedMPH,WindSpeedGustMPH,Humidity,HourlyPrecipIn,Conditions,Clouds,dailyrainin,SoftwareType,DateUTC
2013-04-24 01:02:00,43.0,-99.9,-100.00,ENE,58,0.0,0.0,-999,-99.99,,,-99.99,,2013-04-24 08:02:00,
2013-04-24 01:30:00,43.0,-99.9,-100.00,East,88,0.0,0.0,-999,-99.99,,,-99.99,,2013-04-24 08:30:00,
2013-04-24 02:22:00,43.0,-99.9,-100.00,East,88,0.0,0.0,-999,-99.99,,,-99.99,,2013-04-24 09:22:00,
2013-04-24 04:22:00,37.0,-99.9,-100.00,WNW,303,0.0,0.0,-999,-99.99,,,-99.99,,2013-04-24 11:22:00,
2013-04-24 07:22:00,42.0,-99.9,-100.00,North,11,0.0,0.0,-999,-99.99,,,-99.99,,2013-04-24 14:22:00,
2013-04-24 07:32:00,42.0,-99.9,-100.00,North,11,0.0,0.0,-999,-99.99,,,-99.99,,2013-04-24 14:32:00,
2013-04-24 07:42:00,42.0,-99.9,-100.00,WSW,242,0.0,0.0,-999,-99.99,,,-99.99,,2013-04-24 14:42:00,
2013-04-24 08:02:00,50.0,-99.9,-100.00,SW,225,0.0,0.0,-999,-99.99,,,-99.99,,2013-04-24 15:02:00,
2013-04-24 08:10:00,54.0,-99.9,-100.00,ENE,66,0.0,0.0,-999,-99.99,,,-99.99,,2013-04-24 15:10:00,
2013-04-24 08:11:00,50.0,-99.9,-100.00,SW,225,0.0,0.0,-999,-99.99,,,-99.99,,2013-04-24 15:11:00,
2013-04-24 08:22:00,50.0,-99.9,-100.00,SW,225,0.0,0.0,-999,-99.99,,,-99.99,,2013-04-24 15:22:00,
2013-04-24 08:53:00,54.0,-99.9,-100.00,ENE,66,0.0,0.0,-999,-99.99,,,-99.99,,2013-04-24 15:53:00,
2013-04-24 09:03:00,54.0,-99.9,-100.00,ENE,66,0.0,0.0,-999,-99.99,,,-99.99,,2013-04-24 16:03:00,
2013-04-24 09:42:00,61.0,-99.9,-100.00,NE,48,0.0,0.0,-999,-99.99,,,-99.99,,2013-04-24 16:42:00,
2013-04-24 11:50:00,71.0,-99.9,-100.00,North,11,0.0,0.0,-999,-99.99,,,-99.99,,2013-04-24 18:50:00,
2013-04-24 12:32:00,71.0,-99.9,-100.00,North,11,0.0,0.0,-999,-99.99,,,-99.99,,2013-04-24 19:32:00,
2013-04-24 12:42:00,71.0,-99.9,-100.00,North,11,0.0,0.0,-999,-99.99,,,-99.99,,2013-04-24 19:42:00,
2013-04-24 14:50:00,73.0,-99.9,-100.00,NE,34,0.0,0.0,-999,-99.99,,,-99.99,,2013-04-24 21:50:00,
2013-04-24 15:33:00,73.0,-99.9,-100.00,NE,34,0.0,0.0,-999,-99.99,,,-99.99,,2013-04-24 22:33:00,
2013-04-24 15:42:00,73.0,-99.9,-100.00,NE,34,0.0,0.0,-999,-99.99,,,-99.99,,2013-04-24 22:42:00,
2013-04-24 16:20:00,73.0,-99.9,-100.00,NNE,32,0.0,0.0,-999,-99.99,,,-99.99,,2013-04-24 23:20:00,
2013-04-24 16:22:00,73.0,-99.9,-100.00,NNE,30,0.0,0.0,-999,-99.99,,,-99.99,,2013-04-24 23:22:00,
2013-04-24 16:32:00,73.0,-99.9,-100.00,NE,53,0.0,0.0,-999,-99.99,,,-99.99,,2013-04-24 23:32:00,
2013-04-24 16:42:00,73.0,-99.9,-100.00,NE,53,0.0,0.0,-999,-99.99,,,-99.99,,2013-04-24 23:42:00,
2013-04-24 16:52:00,72.0,-99.9,-100.00,NE,35,0.0,0.0,-999,-99.99,,,-99.99,,2013-04-24 23:52:00,
2013-04-24 17:02:00,73.0,-99.9,-100.00,NNE,32,0.0,0.0,-999,-99.99,,,-99.99,,2013-04-25 00:02:00,
2013-04-24 17:10:00,76.0,-99.9,-100.00,North,2,0.0,0.0,-999,-99.99,,,-99.99,,2013-04-25 00:10:00,
2013-04-24 17:12:00,73.0,-99.9,-100.00,NNE,32,0.0,0.0,-999,-99.99,,,-99.99,,2013-04-25 00:12:00,
2013-04-24 17:52:00,76.0,-99.9,-100.00,North,2,0.0,0.0,-999,-99.99,,,-99.99,,2013-04-25 00:52:00,
2013-04-24 18:02:00,76.0,-99.9,-100.00,North,2,0.0,0.0,-999,-99.99,,,-99.99,,2013-04-25 01:02:00,
2013-04-24 18:20:00,70.0,-99.9,-100.00,North,-999,-999.0,-999.0,-999,-99.99,,,-99.99,,2013-04-25 01:20:00,
2013-04-24 19:02:00,70.0,-99.9,-100.00,North,-999,-999.0,-999.0,-999,-99.99,,,-99.99,,2013-04-25 02:02:00,
2013-04-24 19:10:00,69.0,-99.9,-100.00,NE,50,0.0,0.0,-999,-99.99,,,-99.99,,2013-04-25 02:10:00,
2013-04-24 19:11:00,70.0,-99.9,-100.00,North,-999,-999.0,-999.0,-999,-99.99,,,-99.99,,2013-04-25 02:11:00,
2013-04-24 20:02:00,69.0,-99.9,-100.00,NE,50,0.0,0.0,-999,-99.99,,,-99.99,,2013-04-25 03:02:00,
2013-04-24 21:33:00,60.0,-99.9,-100.00,NW,319,0.0,0.0,-999,-99.99,,,-99.99,,2013-04-25 04:33:00,
2013-04-24 21:43:00,60.0,-99.9,-100.00,NW,319,0.0,0.0,-999,-99.99,,,-99.99,,2013-04-25 04:43:00,
2013-04-24 21:52:00,60.0,-99.9,-100.00,NW,319,0.0,0.0,-999,-99.99,,,-99.99,,2013-04-25 04:52:00,
2013-04-24 22:00:00,59.0,-99.9,-100.00,SW,215,0.0,0.0,-999,-99.99,,,-99.99,,2013-04-25 05:00:00,
2013-04-24 22:52:00,59.0,-99.9,-100.00,SW,215,0.0,0.0,-999,-99.99,,,-99.99,,2013-04-25 05:52:00,
2013-04-24 23:22:00,58.0,-99.9,-100.00,West,278,0.0,0.0,-999,-99.99,,,-99.99,,2013-04-25 06:22:00,
2013-04-24 23:32:00,58.0,-99.9,-100.00,West,278,0.0,0.0,-999,-99.99,,,-99.99,,2013-04-25 06:32:00,
2013-04-24 23:40:00,56.0,-99.9,-100.00,SW,233,0.0,0.0,-999,-99.99,,,-99.99,,2013-04-25 06:40:00,